Location: Arthez
(43.0833°N, 0.2500°W)
Time: 17:55:34
(UTC+00:00)

Daily predictions for brighter satellites

Satellite Brightness Start Highest point End
(mag) Time Altitude Azimuth Time Altitude Azimuth Time Altitude Azimuth
SL-27 R/B 4.0 19:44:30 10° SE 19:47:00 18° E 19:49:31 10° NE
CSL-04 Rocket 4.4 19:44:23 10° S 19:49:40 57° WSW 19:54:57 10° NNW
Cosmos 2333 Rocket 4.0 19:47:46 10° N 19:51:30 18° NE 19:55:12 10° E
BREEZE-M DEB (TANK) 2.3 19:49:07 10° NW 19:51:45 65° NNE 19:57:43 10° ESE
Cosmos 2322 Rocket 2.5 19:48:41 10° NNW 19:54:12 52° ENE 19:59:38 10° SE
CZ-4 R/B 4.3 19:52:15 10° SW 19:55:00 17° W 19:57:44 10° NW
IRS-1A Rocket 4.4 19:50:28 10° SSE 19:55:50 58° ENE 20:01:15 10° N
BREEZE-M R/B 4.4 19:52:31 10° SSW 19:58:10 22° SSE 20:01:15 10° E
Cosmos 923 Rocket 4.0 19:53:21 10° SSW 19:58:40 77° ESE 20:04:01 10° NNE
OBJECT-B 1.5 19:56:06 10° S 19:59:15 54° W 20:02:25 10° NNW
SL-12 R/B (Aux Motor) 4.3 20:00:44 10° WNW 20:02:53 70° SSW 20:07:22 11° ESE
BREEZE-M DEB (TANK) 3.5 20:01:10 10° WNW 20:04:13 79° NNE 20:12:58 11° ESE
Cosmos 2219 Rocket 3.9 20:01:56 10° N 20:05:43 18° NE 20:09:29 10° E
SJ-6B 3.2 20:02:14 10° S 20:05:53 60° W 20:09:38 10° NNW
Meteor 2-15 4.4 20:00:03 10° N 20:06:09 83° E 20:12:12 10° S
Resurs 1-3 3.6 20:02:00 10° SSE 20:06:21 72° ENE 20:10:43 10° N
Atlas Centaur 2 4.1 20:07:26 10° SW 20:08:31 11° SSW 20:09:35 10° SSW
USA 276 4.1 20:06:36 10° W 20:09:04 21° SW 20:11:32 10° S
Cosmos 2056 Rocket 4.1 20:06:04 10° N 20:11:06 42° ENE 20:15:29 13° SE
ATLAS 5 CENTAUR R/B 4.0 20:07:26 10° NNW 20:11:27 21° NE 20:15:58 10° E
USA 186 3.8 20:10:59 10° SSW 20:13:16 22° W 20:15:26 10° NW
SPOT 1/Viking Rocket 4.3 20:14:27 13° SE 20:18:38 36° ENE 20:23:22 10° N
Cosmos 1092 Rocket 4.0 20:13:57 10° S 20:20:14 82° E 20:26:36 10° N
NOSS 2-1 (E) 2.8 20:17:23 10° SW 20:20:43 90° SE 20:24:03 10° NE
Cosmos 2026 Rocket 4.0 20:17:38 10° S 20:23:55 71° E 20:30:07 10° NNE
IGS 5A 3.4 20:23:13 12° SSE 20:27:01 68° ENE 20:31:09 10° N
CZ-2C R/B 4.5 20:23:36 10° NE 20:27:33 30° E 20:30:27 16° SSE
SL-16 R/B 2.5 20:22:08 10° NNW 20:27:46 68° WSW 20:33:22 10° SSE
Meteor 2-15 Rocket 4.5 20:21:40 10° N 20:27:46 86° W 20:33:49 10° S
GP-B 3.5 20:26:03 10° NNE 20:30:19 45° E 20:33:39 16° SSE
Cosmos 1680 Rocket 3.7 20:25:52 10° SSW 20:31:07 75° WNW 20:36:24 10° NNE
Meteor 1-26 Rocket 4.3 20:26:05 10° N 20:31:58 85° W 20:37:36 10° S
Cosmos 1151 Rocket 3.1 20:28:21 10° N 20:32:42 62° E 20:36:06 16° SSE
Cosmos 2112 Rocket 4.1 20:27:39 10° SSW 20:32:57 84° WNW 20:38:14 10° NNE
Lacrosse 5 3.3 20:33:37 17° ESE 20:33:37 17° ESE 20:36:23 10° E
Cosmos 1371 Rocket 4.1 20:28:06 10° NNW 20:33:29 73° ENE 20:37:42 17° SSE
NOSS 3-1 (C) 4.4 20:26:54 10° NNW 20:34:13 56° NE 20:40:55 17° ESE
Okean 3 Rocket 3.6 20:31:17 10° S 20:35:43 64° E 20:40:13 10° NNE
Cosmos 1271 Rocket 3.4 20:32:46 10° NNW 20:36:42 56° W 20:40:36 10° S
MetOp-B 4.2 20:36:35 16° SSE 20:40:46 63° ENE 20:46:05 10° N
ERS-2 2.4 20:38:58 10° N 20:42:36 70° WNW 20:46:12 10° SSW
COSMOS 2487 3.5 20:45:40 24° E 20:45:40 24° E 20:48:16 10° NE
Cosmos 2237 4.3 20:40:15 10° NNW 20:46:00 82° WSW 20:50:20 18° SSE
Cosmos 1515 Rocket 4.2 20:45:49 10° N 20:49:58 39° ENE 20:51:44 27° SE
COSMOS 2428 3.8 20:45:48 10° N 20:50:49 30° NE 20:53:52 19° ESE
COSMOS 2455 2.9 20:45:28 10° S 20:51:17 55° ESE 20:57:09 10° NE
GEOS 3 Rocket 4.5 20:46:20 10° NNE 20:51:23 53° NW 20:56:20 10° WSW
Terra 3.2 20:54:31 20° E 20:56:13 24° ENE 21:00:00 10° NNE
Ariane Rocket 4.0 20:52:01 10° S 20:56:50 43° W 21:01:39 10° NNW
Cosmos 1809 Rocket 4.4 20:51:03 10° S 20:57:12 87° E 21:03:22 10° N
Cosmos 292 Rocket 3.8 20:52:49 10° NNW 20:57:35 66° ENE 20:59:58 29° SE
Cosmos 1328 Rocket 3.5 20:54:36 10° N 20:59:03 90° NNE 21:01:43 24° S
Cosmos 2360 Rocket 2.2 20:55:24 10° NNW 21:01:03 81° WSW 21:04:37 24° SSE
Cosmos 1766 Rocket 4.0 20:58:00 10° SSW 21:02:19 61° W 21:06:39 10° N
SPOT 3 Rocket 3.7 20:59:52 17° S 21:03:53 71° WSW 21:09:06 10° NNW
Cosmos 972 Rocket 4.4 21:01:58 27° SSE 21:04:04 39° E 21:08:41 10° NNE
Cosmos 1174 3.0 21:03:24 10° NW 21:06:24 81° WSW 21:06:57 56° SSE
Resurs 01 Rocket 2.6 21:05:14 13° SSW 21:08:54 44° W 21:13:11 10° NNW
Cosmos 1624 Rocket 4.4 21:06:18 10° NNW 21:11:26 59° WSW 21:14:45 22° S
Cosmos 2266 Rocket 4.2 21:09:42 26° SSE 21:13:00 53° E 21:19:04 10° NNE
NOSS 3-1 (A) 4.4 21:05:41 10° NNW 21:13:05 59° NE 21:18:16 25° ESE
Meteor 2-6 Rocket 4.1 21:07:54 10° NNW 21:13:18 84° W 21:16:31 25° S
Cosmos 1420 Rocket 4.0 21:11:10 10° NNW 21:16:31 81° WSW 21:19:08 31° SSE
Cosmos 1812 3.2 21:13:35 10° NNW 21:17:23 58° W 21:19:06 29° SSW
Cosmos 1553 Rocket 4.0 21:12:20 10° N 21:18:27 78° W 21:22:39 21° S
Cosmos 1862 3.6 21:16:10 19° SSW 21:18:52 64° W 21:22:49 10° N
Meteor 2-21 Rocket 4.4 21:16:32 17° S 21:21:31 86° E 21:27:42 10° N
ERS-1 Rocket 3.1 21:20:14 37° SE 21:22:00 59° ENE 21:26:56 10° N
Cosmos 2228 Rocket 3.7 21:22:13 10° N 21:26:22 38° ENE 21:26:53 37° E
Cosmos 2297 Rocket 3.8 21:31:26 18° E 21:31:26 18° E 21:34:04 10° NE
Cosmos 2285 Rocket 4.2 21:24:23 10° NNW 21:30:37 60° ENE 21:33:03 37° SE
Cosmos 1805 Rocket 4.1 21:31:35 39° E 21:31:35 39° E 21:35:40 10° NNE
SPOT 5 2.6 21:31:58 52° SE 21:32:56 73° ENE 21:37:25 10° N
ARIANE 5 R/B 2.5 21:31:52 48° SSE 21:33:04 89° E 21:37:31 10° NNW
BREEZE-M DEB (TANK) 3.1 21:27:42 10° WNW 21:33:36 44° N 21:34:36 32° ENE
Cosmos 2315 Rocket 4.3 21:29:15 10° N 21:35:29 54° ENE 21:37:36 38° SE
Cosmos 2333 Rocket 2.1 21:30:50 10° NNW 21:36:32 86° WSW 21:38:33 42° SSE
Cosmos 2322 Rocket 4.0 21:33:29 10° NW 21:37:50 23° WSW 21:41:54 11° SSW
Cosmos 2237 Rocket 3.5 21:33:48 10° N 21:38:38 27° NE 21:40:34 23° E
Cosmos 2322 3.7 21:33:45 10° NNW 21:39:31 86° WSW 21:41:30 43° SSE
Cosmos 1500 Rocket 3.5 21:40:12 50° S 21:41:20 88° W 21:45:49 10° N
Cosmos 1452 Rocket 3.4 21:37:47 10° NNW 21:43:04 88° ENE 21:44:29 50° SSE
Cosmos 2227 Rocket 4.0 21:44:50 16° ENE 21:44:50 16° ENE 21:46:56 10° ENE
Cosmos 2219 Rocket 2.1 21:44:45 10° NNW 21:50:22 81° WSW 21:51:54 50° SSE
Sich 1 3.4 21:53:27 48° ENE 21:53:27 48° ENE 21:57:10 10° NNE
S3M 4.3 21:46:42 10° NNW 21:53:01 64° W 21:56:13 30° SSW
Spot 2 Rocket 4.2 21:54:15 32° SSW 21:56:11 47° W 22:01:08 10° NNW
ATLAS 5 CENTAUR R/B 2.3 21:51:06 10° NW 21:56:48 83° NE 21:58:38 49° SE
Cosmos 1331 Rocket 4.1 21:53:46 10° NNW 21:58:55 57° ENE 21:59:36 52° E
Meteor 1-27 Rocket 3.8 21:53:53 10° NNW 21:59:36 75° W 22:01:24 46° S
Cosmos 1110 Rocket 4.0 21:55:05 10° NNW 22:00:23 65° ENE 22:01:08 58° ESE
Cosmos 1743 Rocket 4.2 22:02:46 38° SW 22:04:01 51° WNW 22:08:21 10° N
Cosmos 1633 Rocket 4.3 22:10:51 30° ENE 22:10:51 30° ENE 22:13:36 10° NNE
SL-16 R/B 4.1 22:06:53 10° N 22:10:52 19° NE 22:12:56 16° ENE
Cosmos 494 Rocket 4.0 22:11:18 48° SW 22:12:41 74° WNW 22:17:50 10° NNE
Lacrosse 5 1.8 22:12:22 24° SW 22:15:27 82° NW 22:20:34 10° NE
IRIDIUM 104 4.3 22:13:31 10° N 22:18:45 79° W 22:19:25 67° SSW
APEX 4.4 22:17:44 38° SW 22:20:09 80° WNW 22:26:55 10° NNE
Cosmos 1666 Rocket 4.2 22:21:09 47° NE 22:21:09 47° NE 22:24:38 10° NNE
Nadezhda 2 Rocket 4.4 22:23:48 60° SSE 22:24:58 77° E 22:31:25 10° N
IRIDIUM 114 4.5 22:22:42 10° N 22:27:52 65° W 22:28:31 59° SW
Cosmos 1244 Rocket 4.3 22:30:49 67° SSE 22:31:41 80° E 22:37:55 10° N
Terra 2.7 22:33:23 38° WSW 22:33:44 39° W 22:38:13 10° NNW
Meteor 1-25 Rocket 4.3 22:33:38 59° SW 22:34:34 71° W 22:40:08 10° N
COSMOS 2428 3.3 22:29:51 10° NW 22:35:12 43° WSW 22:35:52 42° SW
CZ-4C R/B 4.2 22:29:45 10° NNW 22:35:58 32° NE 22:41:11 17° E
COBE Rocket 4.1 22:36:50 57° NE 22:36:50 57° NE 22:41:01 10° N
Cosmos 2084 Rocket 4.3 22:35:47 10° NW 22:38:56 47° WNW 22:38:56 47° WNW
CZ-3B R/B 2.5 22:32:25 10° NW 22:39:48 62° NNE 22:39:48 62° NNE
Meteor 2-4 Rocket 4.1 22:34:47 10° N 22:40:33 53° ENE 22:40:46 52° E
USA 229 DEB 4.4 22:36:19 10° NW 22:43:24 49° WSW 22:45:02 43° SSW
USA 229 4.3 22:36:25 10° NW 22:43:31 50° WSW 22:45:07 43° SSW
Cosmos 1862 Rocket 4.3 22:42:06 10° N 22:45:19 47° NNE 22:45:19 47° NNE
Cosmos 2219 3.3 22:48:17 65° ENE 22:48:17 65° ENE 22:53:31 10° NNE
Meteor 1-18 Rocket 4.1 22:43:21 10° N 22:49:10 89° E 22:49:18 86° SSE
USA 267 3.8 22:43:27 10° ENE 22:48:10 40° E 22:48:10 40° E
Spot 4 4.2 22:52:09 57° NE 22:52:09 57° NE 22:56:21 10° N
Cosmos 1707 Rocket 4.4 22:50:19 10° NNW 22:53:48 46° NW 22:53:48 46° NW
Cosmos 1302 Rocket 4.0 22:52:43 10° NNW 22:57:32 75° NNW 22:57:32 75° NNW
Meteor 1-19 Rocket 4.4 22:55:28 10° NNW 23:00:52 60° W 23:00:52 60° W
SL-08 R/B 4.3 23:00:49 76° SW 23:01:18 84° W 23:07:29 10° N
Cosmos 1980 3.7 22:55:59 10° NNW 23:01:24 69° W 23:01:24 69° W
Cosmos 909 Rocket 4.1 23:02:47 69° SE 23:03:04 70° ESE 23:10:37 10° NE
NOSS 2-2 (D) 4.4 23:03:52 10° NW 23:09:28 82° SW 23:09:49 78° S
Cosmos 1269 Rocket 4.2 23:10:35 65° WNW 23:10:35 65° WNW 23:15:43 10° NNE
Cosmos 2297 Rocket 2.4 23:13:12 60° W 23:13:39 63° WNW 23:19:18 10° NNE
Meteor 2-17 Rocket 4.4 23:15:38 71° ENE 23:15:38 71° ENE 23:21:27 10° NNE
ALOS 2 3.7 23:23:09 43° N 23:23:09 43° N 23:26:11 10° N
Cosmos 2237 Rocket 2.8 23:17:28 10° NW 23:22:23 48° W 23:22:23 48° W
USA 234 4.3 23:18:04 15° E 23:23:03 42° NNE 23:29:08 10° NW
Cosmos 1709 Rocket 4.1 23:26:19 64° E 23:26:19 64° E 23:32:30 10° NNE
Cosmos 2227 Rocket 2.4 23:26:37 66° WNW 23:26:38 66° WNW 23:32:18 10° NNE
Meteor 1-13 Rocket 4.5 23:23:35 10° N 23:28:50 61° NE 23:28:50 61° NE
Cosmos 2263 Rocket 3.8 23:33:28 23° ENE 23:33:28 23° ENE 23:36:27 10° NE
Cosmos 1745 Rocket 4.1 23:35:14 65° W 23:35:34 66° W 23:41:52 10° N
ATLAS 5 CENTAUR R/B 4.2 23:36:56 10° WNW 23:40:09 19° W 23:40:09 19° W
Cosmos 1241 Rocket 4.4 23:44:35 82° W 23:44:48 84° WNW 23:51:21 10° NNE
Nadezhda 1 Rocket 4.4 23:45:01 10° NNW 23:51:10 51° W 23:51:16 51° W
Cosmos 44 4.1 23:46:57 10° NNW 23:51:25 51° NNE 23:51:25 51° NNE
Thor Agena Rocket 4.4 23:48:57 10° NNE 23:52:34 41° NE 23:52:34 41° NE
